,,,PA_Meas_PMT16A,,PR_Meas_QMR101_102,,RH_Meas_QMH101,,SR_Meas_QMS101,,TA_Meas_QMH101,,GenWind,,GenWind,
date,time,status,PA,status,PR,status,RH,status,SR,status,TA,status,DirAvg,status,SpdAvg,
2011-06-30, 00:00:04,VALID,1004.65,VALID,0,INVALID,163.685,VALID,0,VALID,24.9087,VALID,357,VALID,0,
2011-06-30, 00:01:04,VALID,1004.65,VALID,0,INVALID,163.67,VALID,0,VALID,24.8503,VALID,357,VALID,0,
2011-06-30, 00:02:04,VALID,1004.63,VALID,0,INVALID,163.716,VALID,0,VALID,24.8132,VALID,357,VALID,0,
2011-06-30, 00:03:04,VALID,1004.59,VALID,0,INVALID,163.701,VALID,0,VALID,24.714,VALID,357,VALID,0,
2011-06-30, 00:04:04,VALID,1004.57,VALID,0,INVALID,163.693,VALID,0,VALID,24.6769,VALID,357,VALID,0,
2011-06-30, 00:05:04,VALID,1004.56,VALID,0,INVALID,163.701,VALID,0.100563,VALID,24.5777,VALID,45,VALID,0,
2011-06-30, 00:06:04,VALID,1004.57,VALID,0,INVALID,163.746,VALID,0,VALID,24.5193,VALID,47,VALID,0,
2011-06-30, 00:07:04,VALID,1004.57,VALID,0,INVALID,163.708,VALID,0,VALID,24.4609,VALID,47,VALID,0,
2011-06-30, 00:08:04,VALID,1004.56,VALID,0,INVALID,163.739,VALID,0,VALID,24.4025,VALID,123,VALID,0,
2011-06-30, 00:09:04,VALID,1004.53,VALID,0,INVALID,163.731,VALID,0,VALID,24.4043,VALID,127,VALID,0,
2011-06-30, 00:10:04,VALID,1004.53,VALID,0,INVALID,163.746,VALID,0,VALID,24.3441,VALID,126,VALID,0,
2011-06-30, 00:11:04,VALID,1004.55,VALID,0,INVALID,163.739,VALID,0,VALID,24.2857,VALID,126,VALID,0,
2011-06-30, 00:12:04,VALID,1004.54,VALID,0,INVALID,163.739,VALID,0,VALID,24.2662,VALID,126,VALID,0,
2011-06-30, 00:13:04,VALID,1004.48,VALID,0,INVALID,163.731,VALID,0,VALID,24.2486,VALID,126,VALID,0,
2011-06-30, 00:14:04,VALID,1004.49,VALID,0,INVALID,163.731,VALID,0,VALID,24.2273,VALID,126,VALID,0,
2011-06-30, 00:15:04,VALID,1004.47,VALID,0,INVALID,163.723,VALID,0,VALID,24.2097,VALID,126,VALID,0,
2011-06-30, 00:16:04,VALID,1004.47,VALID,0,INVALID,163.762,VALID,0,VALID,24.1689,VALID,126,VALID,0,
2011-06-30, 00:17:04,VALID,1004.44,VALID,0,INVALID,163.769,VALID,0,VALID,24.1689,VALID,126,VALID,0,
2011-06-30, 00:18:04,VALID,1004.44,VALID,0,INVALID,163.762,VALID,0,VALID,24.1689,VALID,126,VALID,0,
2011-06-30, 00:19:04,VALID,1004.44,VALID,0,INVALID,163.762,VALID,0,VALID,24.1902,VALID,126,VALID,0,
2011-06-30, 00:20:04,VALID,1004.44,VALID,0,INVALID,163.769,VALID,0,VALID,24.1494,VALID,127,VALID,0,
2011-06-30, 00:21:04,VALID,1004.42,VALID,0,INVALID,163.739,VALID,0,VALID,24.1494,VALID,126,VALID,0,
2011-06-30, 00:22:04,VALID,1004.38,VALID,0,INVALID,163.769,VALID,0,VALID,24.1105,VALID,126,VALID,0,
2011-06-30, 00:23:04,VALID,1004.39,VALID,0,INVALID,163.754,VALID,0,VALID,24.0716,VALID,126,VALID,0,
2011-06-30, 00:24:04,VALID,1004.37,VALID,0,INVALID,163.731,VALID,0,VALID,24.0521,VALID,126,VALID,0,
2011-06-30, 00:25:04,VALID,1004.38,VALID,0,INVALID,163.762,VALID,0,VALID,24.0716,VALID,126,VALID,0,
2011-06-30, 00:26:04,VALID,1004.39,VALID,0,INVALID,163.784,VALID,0,VALID,24.0326,VALID,126,VALID,0,
2011-06-30, 00:27:04,VALID,1004.39,VALID,0,INVALID,163.769,VALID,0.100563,VALID,24.0345,VALID,126,VALID,0,
2011-06-30, 00:28:04,VALID,1004.39,VALID,0,INVALID,163.739,VALID,0,VALID,23.9955,VALID,126,VALID,0,
2011-06-30, 00:29:04,VALID,1004.41,VALID,0,INVALID,163.746,VALID,0.100563,VALID,23.9742,VALID,126,VALID,0,
2011-06-30, 00:30:04,VALID,1004.41,VALID,0,INVALID,163.754,VALID,0,VALID,23.9353,VALID,126,VALID,0,
2011-06-30, 00:31:04,VALID,1004.42,VALID,0,INVALID,163.762,VALID,0,VALID,23.8964,VALID,126,VALID,0,
2011-06-30, 00:32:04,VALID,1004.41,VALID,0,INVALID,163.769,VALID,0,VALID,23.8769,VALID,126,VALID,0,
2011-06-30, 00:33:04,VALID,1004.38,VALID,0,INVALID,163.777,VALID,0,VALID,23.8787,VALID,127,VALID,0,
2011-06-30, 00:34:04,VALID,1004.39,VALID,0,INVALID,163.784,VALID,0,VALID,23.8593,VALID,126,VALID,0,
2011-06-30, 00:35:04,VALID,1004.4,VALID,0,INVALID,163.784,VALID,0,VALID,23.8185,VALID,126,VALID,0,
2011-06-30, 00:36:04,VALID,1004.37,VALID,0,INVALID,163.792,VALID,0,VALID,23.8203,VALID,126,VALID,0,
2011-06-30, 00:37:04,VALID,1004.37,VALID,0,INVALID,163.769,VALID,0,VALID,23.7796,VALID,126,VALID,0,
2011-06-30, 00:38:04,VALID,1004.35,VALID,0,INVALID,163.777,VALID,0,VALID,23.8009,VALID,126,VALID,0,
2011-06-30, 00:39:04,VALID,1004.34,VALID,0,INVALID,163.777,VALID,0,VALID,23.7601,VALID,126,VALID,0,
2011-06-30, 00:40:04,VALID,1004.32,VALID,0,INVALID,163.769,VALID,0,VALID,23.7407,VALID,127,VALID,0,
2011-06-30, 00:41:04,VALID,1004.35,VALID,0,INVALID,163.807,VALID,0,VALID,23.7,VALID,126,VALID,0,
2011-06-30, 00:42:04,VALID,1004.31,VALID,0,INVALID,163.784,VALID,0,VALID,23.7017,VALID,126,VALID,0,
2011-06-30, 00:43:04,VALID,1004.31,VALID,0,INVALID,163.777,VALID,0,VALID,23.6823,VALID,126,VALID,0,
2011-06-30, 00:44:04,VALID,1004.27,VALID,0,INVALID,163.762,VALID,0,VALID,23.6628,VALID,127,VALID,0,
2011-06-30, 00:45:04,VALID,1004.26,VALID,0,INVALID,163.792,VALID,0,VALID,23.6628,VALID,126,VALID,0,
2011-06-30, 00:46:04,VALID,1004.27,VALID,0,INVALID,163.784,VALID,0,VALID,23.6434,VALID,127,VALID,0,
2011-06-30, 00:47:04,VALID,1004.24,VALID,0,INVALID,163.792,VALID,0,VALID,23.6239,VALID,127,VALID,0,
2011-06-30, 00:48:04,VALID,1004.22,VALID,0,INVALID,163.777,VALID,0,VALID,23.6044,VALID,126,VALID,0,
2011-06-30, 00:49:04,VALID,1004.18,VALID,0,INVALID,163.777,VALID,0,VALID,23.585,VALID,126,VALID,0,
2011-06-30, 00:50:04,VALID,1004.16,VALID,0,INVALID,163.777,VALID,0,VALID,23.5266,VALID,126,VALID,0,
2011-06-30, 00:51:04,VALID,1004.12,VALID,0,INVALID,163.807,VALID,0,VALID,23.5266,VALID,126,VALID,0,
2011-06-30, 00:52:04,VALID,1004.14,VALID,0,INVALID,163.823,VALID,0,VALID,23.5284,VALID,127,VALID,0,
2011-06-30, 00:53:04,VALID,1004.1,VALID,0,INVALID,163.807,VALID,0,VALID,23.4894,VALID,126,VALID,0,
2011-06-30, 00:54:04,VALID,1004.11,VALID,0,INVALID,163.807,VALID,0,VALID,23.4682,VALID,127,VALID,0,
2011-06-30, 00:55:04,VALID,1004.09,VALID,0,INVALID,163.8,VALID,0,VALID,23.4487,VALID,127,VALID,0,
2011-06-30, 00:56:04,VALID,1004.07,VALID,0,INVALID,163.807,VALID,0,VALID,23.4098,VALID,127,VALID,0,
2011-06-30, 00:57:04,VALID,1004.07,VALID,0,INVALID,163.792,VALID,0,VALID,23.3904,VALID,127,VALID,0,
2011-06-30, 00:58:04,VALID,1004.08,VALID,0,INVALID,163.807,VALID,0,VALID,23.3709,VALID,127,VALID,0,
2011-06-30, 00:59:04,VALID,1004.07,VALID,0,INVALID,163.83,VALID,0,VALID,23.3302,VALID,127,VALID,0,
2011-06-30, 01:00:04,VALID,1004.06,VALID,0,INVALID,163.823,VALID,0,VALID,23.3532,VALID,127,VALID,0,
2011-06-30, 01:01:04,VALID,1004.05,VALID,0,INVALID,163.807,VALID,0,VALID,23.332,VALID,127,VALID,0,
2011-06-30, 01:02:04,VALID,1004.03,VALID,0,INVALID,163.8,VALID,0,VALID,23.3125,VALID,127,VALID,0,
2011-06-30, 01:03:04,VALID,1004.01,VALID,0,INVALID,163.807,VALID,0,VALID,23.2931,VALID,127,VALID,0,
2011-06-30, 01:04:04,VALID,1004,VALID,0,INVALID,163.8,VALID,0,VALID,23.2931,VALID,127,VALID,0,
2011-06-30, 01:05:04,VALID,1003.99,VALID,0,INVALID,163.823,VALID,0,VALID,23.2736,VALID,127,VALID,0,
2011-06-30, 01:06:04,VALID,1003.99,VALID,0,INVALID,163.83,VALID,0,VALID,23.2541,VALID,127,VALID,0,
2011-06-30, 01:07:04,VALID,1003.96,VALID,0,INVALID,163.815,VALID,0,VALID,23.2541,VALID,127,VALID,0,
2011-06-30, 01:08:04,VALID,1003.95,VALID,0,INVALID,163.807,VALID,0,VALID,23.2347,VALID,127,VALID,0,
2011-06-30, 01:09:04,VALID,1003.94,VALID,0,INVALID,163.823,VALID,0,VALID,23.2347,VALID,127,VALID,0,
2011-06-30, 01:10:04,VALID,1003.95,VALID,0,INVALID,163.807,VALID,0,VALID,23.2559,VALID,127,VALID,0,
2011-06-30, 01:11:04,VALID,1003.93,VALID,0,INVALID,163.784,VALID,0,VALID,23.2541,VALID,127,VALID,0,
2011-06-30, 01:12:04,VALID,1003.95,VALID,0,INVALID,163.845,VALID,0,VALID,23.2559,VALID,127,VALID,0,
2011-06-30, 01:13:04,VALID,1003.92,VALID,0,INVALID,163.792,VALID,0,VALID,23.194,VALID,49,VALID,0,
2011-06-30, 01:14:04,VALID,1003.87,VALID,0,INVALID,163.838,VALID,0,VALID,23.217,VALID,49,VALID,0,
2011-06-30, 01:15:04,VALID,1003.85,VALID,0,INVALID,163.823,VALID,0,VALID,23.1586,VALID,49,VALID,0,
2011-06-30, 01:16:04,VALID,1003.81,VALID,0,INVALID,163.853,VALID,0,VALID,23.1391,VALID,49,VALID,0,
2011-06-30, 01:17:04,VALID,1003.82,VALID,0,INVALID,163.815,VALID,0,VALID,23.1374,VALID,49,VALID,0,
2011-06-30, 01:18:04,VALID,1003.82,VALID,0,INVALID,163.845,VALID,0,VALID,23.1179,VALID,49,VALID,0,
2011-06-30, 01:19:04,VALID,1003.79,VALID,0,INVALID,163.83,VALID,0,VALID,23.1374,VALID,49,VALID,0,
2011-06-30, 01:20:04,VALID,1003.8,VALID,0,INVALID,163.823,VALID,0,VALID,23.1374,VALID,49,VALID,0,
2011-06-30, 01:21:04,VALID,1003.81,VALID,0,INVALID,163.83,VALID,0,VALID,23.2152,VALID,49,VALID,0,
2011-06-30, 01:22:04,VALID,1003.82,VALID,0,INVALID,163.823,VALID,0,VALID,23.2559,VALID,49,VALID,0,
2011-06-30, 01:23:04,VALID,1003.83,VALID,0,INVALID,163.838,VALID,0,VALID,23.2559,VALID,49,VALID,0,
2011-06-30, 01:24:04,VALID,1003.86,VALID,0,INVALID,163.83,VALID,0,VALID,23.2559,VALID,49,VALID,0,
2011-06-30, 01:25:04,VALID,1003.88,VALID,0,INVALID,163.853,VALID,0,VALID,23.2134,VALID,49,VALID,0,
2011-06-30, 01:26:04,VALID,1003.91,VALID,0,INVALID,163.853,VALID,0,VALID,23.2347,VALID,49,VALID,0,
2011-06-30, 01:27:04,VALID,1003.9,VALID,0,INVALID,163.838,VALID,0,VALID,23.2347,VALID,49,VALID,0,
2011-06-30, 01:28:04,VALID,1003.9,VALID,0,INVALID,163.8,VALID,0,VALID,23.2152,VALID,49,VALID,0,
2011-06-30, 01:29:04,VALID,1003.89,VALID,0,INVALID,163.815,VALID,0,VALID,23.2152,VALID,49,VALID,0,
2011-06-30, 01:30:04,VALID,1003.89,VALID,0,INVALID,163.823,VALID,0,VALID,23.2152,VALID,49,VALID,0,
2011-06-30, 01:31:04,VALID,1003.86,VALID,0,INVALID,163.838,VALID,0,VALID,23.1957,VALID,49,VALID,0,
2011-06-30, 01:32:04,VALID,1003.87,VALID,0,INVALID,163.823,VALID,0,VALID,23.1763,VALID,49,VALID,0,
2011-06-30, 01:33:04,VALID,1003.87,VALID,0,INVALID,163.838,VALID,0,VALID,23.1763,VALID,49,VALID,0,
2011-06-30, 01:34:04,VALID,1003.86,VALID,0,INVALID,163.8,VALID,0,VALID,23.1551,VALID,49,VALID,0,
2011-06-30, 01:35:04,VALID,1003.86,VALID,0,INVALID,163.815,VALID,0,VALID,23.1568,VALID,49,VALID,0,
2011-06-30, 01:36:04,VALID,1003.85,VALID,0,INVALID,163.83,VALID,0.100563,VALID,23.1374,VALID,49,VALID,0,
2011-06-30, 01:37:04,VALID,1003.87,VALID,0,INVALID,163.807,VALID,0,VALID,23.178,VALID,49,VALID,0,
2011-06-30, 01:38:04,VALID,1003.87,VALID,0,INVALID,163.807,VALID,0,VALID,23.1568,VALID,49,VALID,0,
2011-06-30, 01:39:04,VALID,1003.9,VALID,0,INVALID,163.823,VALID,0,VALID,23.1568,VALID,49,VALID,0,
2011-06-30, 01:40:04,VALID,1003.89,VALID,0,INVALID,163.807,VALID,0,VALID,23.1374,VALID,49,VALID,0,
2011-06-30, 01:41:04,VALID,1003.87,VALID,0,INVALID,163.823,VALID,0,VALID,23.1374,VALID,49,VALID,0,
2011-06-30, 01:42:04,VALID,1003.88,VALID,0,INVALID,163.815,VALID,0,VALID,23.1374,VALID,49,VALID,0,
2011-06-30, 01:43:04,VALID,1003.9,VALID,0,INVALID,163.83,VALID,0,VALID,23.1179,VALID,49,VALID,0,
2011-06-30, 01:44:04,VALID,1003.88,VALID,0,INVALID,163.838,VALID,0.100563,VALID,23.1374,VALID,49,VALID,0,
2011-06-30, 01:45:04,VALID,1003.88,VALID,0,INVALID,163.792,VALID,0,VALID,23.1179,VALID,49,VALID,0,
2011-06-30, 01:46:04,VALID,1003.91,VALID,0,INVALID,163.83,VALID,0,VALID,23.0967,VALID,49,VALID,0,
2011-06-30, 01:47:04,VALID,1003.89,VALID,0,INVALID,163.83,VALID,0,VALID,23.1179,VALID,49,VALID,0,
2011-06-30, 01:48:04,VALID,1003.87,VALID,0,INVALID,163.807,VALID,0,VALID,23.178,VALID,49,VALID,0,
2011-06-30, 01:49:04,VALID,1003.85,VALID,0,INVALID,163.807,VALID,0,VALID,23.1763,VALID,49,VALID,0,
2011-06-30, 01:50:04,VALID,1003.87,VALID,0,INVALID,163.838,VALID,0,VALID,23.194,VALID,49,VALID,0,
2011-06-30, 01:51:04,VALID,1003.88,VALID,0,INVALID,163.815,VALID,0,VALID,23.2152,VALID,49,VALID,0,
2011-06-30, 01:52:04,VALID,1003.84,VALID,0,INVALID,163.845,VALID,0,VALID,23.1957,VALID,49,VALID,0,
2011-06-30, 01:53:04,VALID,1003.86,VALID,0,INVALID,163.815,VALID,0,VALID,23.1568,VALID,49,VALID,0,
2011-06-30, 01:54:04,VALID,1003.85,VALID,0,INVALID,163.823,VALID,0.100563,VALID,23.0984,VALID,49,VALID,0,
2011-06-30, 01:55:04,VALID,1003.85,VALID,0,INVALID,163.838,VALID,0,VALID,23.0595,VALID,49,VALID,0,
2011-06-30, 01:56:04,VALID,1003.87,VALID,0,INVALID,163.853,VALID,0,VALID,23.0578,VALID,49,VALID,0,
2011-06-30, 01:57:04,VALID,1003.87,VALID,0,INVALID,163.845,VALID,0,VALID,23.1179,VALID,49,VALID,0,
2011-06-30, 01:58:04,VALID,1003.86,VALID,0,INVALID,163.83,VALID,0,VALID,23.1568,VALID,49,VALID,0,
2011-06-30, 01:59:04,VALID,1003.81,VALID,0,INVALID,163.838,VALID,0.100563,VALID,23.1551,VALID,49,VALID,0,
2011-06-30, 02:00:04,VALID,1003.8,VALID,0,INVALID,163.845,VALID,0,VALID,23.1763,VALID,49,VALID,0,
2011-06-30, 02:01:04,VALID,1003.78,VALID,0,INVALID,163.815,VALID,0,VALID,23.217,VALID,49,VALID,0,
2011-06-30, 02:02:04,VALID,1003.71,VALID,0,INVALID,163.853,VALID,0,VALID,23.2364,VALID,49,VALID,0,
2011-06-30, 02:03:04,VALID,1003.7,VALID,0,INVALID,163.792,VALID,0,VALID,23.217,VALID,49,VALID,0,
2011-06-30, 02:04:04,VALID,1003.7,VALID,0,INVALID,163.823,VALID,0,VALID,23.2152,VALID,49,VALID,0,
2011-06-30, 02:05:04,VALID,1003.67,VALID,0,INVALID,163.792,VALID,0,VALID,23.1957,VALID,49,VALID,0,
2011-06-30, 02:06:04,VALID,1003.66,VALID,0,INVALID,163.815,VALID,0,VALID,23.2364,VALID,49,VALID,0,
2011-06-30, 02:07:04,VALID,1003.62,VALID,0,INVALID,163.838,VALID,0,VALID,23.217,VALID,49,VALID,0,
2011-06-30, 02:08:04,VALID,1003.64,VALID,0,INVALID,163.83,VALID,0,VALID,23.217,VALID,49,VALID,0,
2011-06-30, 02:09:04,VALID,1003.62,VALID,0,INVALID,163.823,VALID,0,VALID,23.217,VALID,49,VALID,0,
2011-06-30, 02:10:04,VALID,1003.62,VALID,0,INVALID,163.807,VALID,0,VALID,23.2364,VALID,49,VALID,0,
2011-06-30, 02:11:04,VALID,1003.61,VALID,0,INVALID,163.838,VALID,0,VALID,23.1975,VALID,49,VALID,0,
2011-06-30, 02:12:04,VALID,1003.6,VALID,0,INVALID,163.823,VALID,0,VALID,23.1391,VALID,49,VALID,0,
2011-06-30, 02:13:04,VALID,1003.57,VALID,0,INVALID,163.853,VALID,0,VALID,23.1002,VALID,49,VALID,0,
2011-06-30, 02:14:04,VALID,1003.57,VALID,0,INVALID,163.838,VALID,0,VALID,23.0613,VALID,49,VALID,0,
2011-06-30, 02:15:04,VALID,1003.58,VALID,0,INVALID,163.838,VALID,0,VALID,23.0189,VALID,49,VALID,0,
2011-06-30, 02:16:04,VALID,1003.56,VALID,0,INVALID,163.845,VALID,0,VALID,23.0012,VALID,49,VALID,0,
2011-06-30, 02:17:04,VALID,1003.56,VALID,0,INVALID,163.853,VALID,0.100563,VALID,22.9605,VALID,49,VALID,0,
2011-06-30, 02:18:04,VALID,1003.54,VALID,0,INVALID,163.838,VALID,0.100563,VALID,22.9622,VALID,49,VALID,0,
2011-06-30, 02:19:04,VALID,1003.54,VALID,0,INVALID,163.838,VALID,0,VALID,22.9817,VALID,49,VALID,0,
2011-06-30, 02:20:04,VALID,1003.57,VALID,0,INVALID,163.853,VALID,0.100563,VALID,22.941,VALID,49,VALID,0,
2011-06-30, 02:21:04,VALID,1003.54,VALID,0,INVALID,163.83,VALID,0.100563,VALID,22.9605,VALID,49,VALID,0,
2011-06-30, 02:22:04,VALID,1003.55,VALID,0,INVALID,163.838,VALID,0,VALID,22.9994,VALID,49,VALID,0,
2011-06-30, 02:23:04,VALID,1003.56,VALID,0,INVALID,163.83,VALID,0,VALID,23.0383,VALID,49,VALID,0,
2011-06-30, 02:24:04,VALID,1003.59,VALID,0,INVALID,163.823,VALID,0.100563,VALID,23.0984,VALID,49,VALID,0,
2011-06-30, 02:25:04,VALID,1003.57,VALID,0,INVALID,163.823,VALID,0,VALID,23.1374,VALID,49,VALID,0,
2011-06-30, 02:26:04,VALID,1003.6,VALID,0,INVALID,163.838,VALID,0,VALID,23.1374,VALID,49,VALID,0,
2011-06-30, 02:27:04,VALID,1003.56,VALID,0,INVALID,163.815,VALID,0,VALID,23.1374,VALID,49,VALID,0,
2011-06-30, 02:28:04,VALID,1003.55,VALID,0,INVALID,163.838,VALID,0,VALID,23.1356,VALID,49,VALID,0,
2011-06-30, 02:29:04,VALID,1003.57,VALID,0,INVALID,163.83,VALID,0.100563,VALID,23.1374,VALID,49,VALID,0,
2011-06-30, 02:30:04,VALID,1003.55,VALID,0,INVALID,163.853,VALID,0,VALID,23.1374,VALID,49,VALID,0,
2011-06-30, 02:31:04,VALID,1003.55,VALID,0,INVALID,163.815,VALID,0.100563,VALID,23.0984,VALID,49,VALID,0,
2011-06-30, 02:32:04,VALID,1003.5,VALID,0,INVALID,163.83,VALID,0,VALID,23.0401,VALID,46,VALID,0,
2011-06-30, 02:33:04,VALID,1003.48,VALID,0,INVALID,163.838,VALID,0,VALID,23.0012,VALID,46,VALID,0,
2011-06-30, 02:34:04,VALID,1003.46,VALID,0,INVALID,163.853,VALID,0,VALID,22.98,VALID,45,VALID,0,
2011-06-30, 02:35:04,VALID,1003.44,VALID,0,INVALID,163.823,VALID,0,VALID,22.9605,VALID,35,VALID,0,
2011-06-30, 02:36:04,VALID,1003.42,VALID,0,INVALID,163.845,VALID,0.100563,VALID,22.941,VALID,35,VALID,0,
2011-06-30, 02:37:04,VALID,1003.37,VALID,0,INVALID,163.823,VALID,0,VALID,22.941,VALID,35,VALID,0,
2011-06-30, 02:38:04,VALID,1003.35,VALID,0,INVALID,163.815,VALID,0,VALID,22.9817,VALID,35,VALID,0,
2011-06-30, 02:39:04,VALID,1003.33,VALID,0,INVALID,163.815,VALID,0.100563,VALID,23.0012,VALID,10,VALID,0,
2011-06-30, 02:40:04,VALID,1003.31,VALID,0,INVALID,163.815,VALID,0,VALID,23.0578,VALID,6,VALID,0,
2011-06-30, 02:41:04,VALID,1003.28,VALID,0,INVALID,163.83,VALID,0,VALID,23.0578,VALID,6,VALID,0,
2011-06-30, 02:42:04,VALID,1003.27,VALID,0,INVALID,163.853,VALID,0,VALID,23.0984,VALID,6,VALID,0,
2011-06-30, 02:43:04,VALID,1003.32,VALID,0,INVALID,163.861,VALID,0.100563,VALID,23.0984,VALID,6,VALID,0,
2011-06-30, 02:44:04,VALID,1003.31,VALID,0,INVALID,163.83,VALID,0,VALID,23.0772,VALID,6,VALID,0,
2011-06-30, 02:45:04,VALID,1003.31,VALID,0,INVALID,163.823,VALID,0,VALID,23.0595,VALID,6,VALID,0,
2011-06-30, 02:46:04,VALID,1003.31,VALID,0,INVALID,163.838,VALID,0,VALID,23.0595,VALID,6,VALID,0,
2011-06-30, 02:47:04,VALID,1003.3,VALID,0,INVALID,163.853,VALID,0,VALID,23.0206,VALID,6,VALID,0,
2011-06-30, 02:48:04,VALID,1003.3,VALID,0,INVALID,163.83,VALID,0,VALID,23.0613,VALID,6,VALID,0,
2011-06-30, 02:49:04,VALID,1003.27,VALID,0,INVALID,163.83,VALID,0,VALID,23.0206,VALID,6,VALID,0,
2011-06-30, 02:50:04,VALID,1003.29,VALID,0,INVALID,163.861,VALID,0,VALID,23.0613,VALID,6,VALID,0,
2011-06-30, 02:51:04,VALID,1003.28,VALID,0,INVALID,163.815,VALID,0,VALID,23.0595,VALID,6,VALID,0,
2011-06-30, 02:52:04,VALID,1003.24,VALID,0,INVALID,163.845,VALID,0,VALID,23.1179,VALID,5,VALID,0,
2011-06-30, 02:53:04,VALID,1003.23,VALID,0,INVALID,163.823,VALID,0,VALID,23.0984,VALID,5,VALID,0,
2011-06-30, 02:54:04,VALID,1003.19,VALID,0,INVALID,163.838,VALID,0,VALID,23.1002,VALID,5,VALID,0,
2011-06-30, 02:55:04,VALID,1003.17,VALID,0,INVALID,163.83,VALID,0,VALID,23.0807,VALID,5,VALID,0,
2011-06-30, 02:56:04,VALID,1003.17,VALID,0,INVALID,163.83,VALID,0,VALID,23.0807,VALID,4,VALID,0,
2011-06-30, 02:57:04,VALID,1003.13,VALID,0,INVALID,163.845,VALID,0,VALID,23.0613,VALID,4,VALID,0,
2011-06-30, 02:58:04,VALID,1003.12,VALID,0,INVALID,163.838,VALID,0,VALID,23.0418,VALID,4,VALID,0,
2011-06-30, 02:59:04,VALID,1003.1,VALID,0,INVALID,163.83,VALID,0,VALID,23.0206,VALID,4,VALID,0,
2011-06-30, 03:00:04,VALID,1003.1,VALID,0,INVALID,163.83,VALID,0,VALID,23.0206,VALID,4,VALID,0,
2011-06-30, 03:01:04,VALID,1003.15,VALID,0,INVALID,163.823,VALID,0,VALID,23.0012,VALID,4,VALID,0,
2011-06-30, 03:02:04,VALID,1003.12,VALID,0,INVALID,163.838,VALID,0,VALID,23.0418,VALID,4,VALID,0,
2011-06-30, 03:03:04,VALID,1003.1,VALID,0,INVALID,163.838,VALID,0,VALID,23.0401,VALID,4,VALID,0,
2011-06-30, 03:04:04,VALID,1003.15,VALID,0,INVALID,163.845,VALID,0,VALID,23.0418,VALID,4,VALID,0,
2011-06-30, 03:05:04,VALID,1003.16,VALID,0,INVALID,163.853,VALID,0,VALID,23.0401,VALID,4,VALID,0,
2011-06-30, 03:06:04,VALID,1003.18,VALID,0,INVALID,163.838,VALID,0,VALID,23.0401,VALID,4,VALID,0,
2011-06-30, 03:07:04,VALID,1003.2,VALID,0,INVALID,163.83,VALID,0,VALID,23.0206,VALID,4,VALID,0,
2011-06-30, 03:08:04,VALID,1003.21,VALID,0,INVALID,163.845,VALID,0,VALID,23.0012,VALID,4,VALID,0,
2011-06-30, 03:09:04,VALID,1003.22,VALID,0,INVALID,163.815,VALID,0,VALID,23.0224,VALID,4,VALID,0,
2011-06-30, 03:10:04,VALID,1003.22,VALID,0,INVALID,163.823,VALID,0,VALID,23.0012,VALID,4,VALID,0,
2011-06-30, 03:11:04,VALID,1003.21,VALID,0,INVALID,163.845,VALID,0,VALID,22.9817,VALID,4,VALID,0,
2011-06-30, 03:12:04,VALID,1003.18,VALID,0,INVALID,163.823,VALID,0,VALID,23.0029,VALID,4,VALID,0,
2011-06-30, 03:13:04,VALID,1003.17,VALID,0,INVALID,163.838,VALID,0,VALID,22.9622,VALID,4,VALID,0,
2011-06-30, 03:14:04,VALID,1003.18,VALID,0,INVALID,163.838,VALID,0,VALID,22.9622,VALID,4,VALID,0,
2011-06-30, 03:15:04,VALID,1003.18,VALID,0,INVALID,163.838,VALID,0,VALID,22.964,VALID,3,VALID,0,
2011-06-30, 03:16:04,VALID,1003.18,VALID,0,INVALID,163.853,VALID,0,VALID,22.9428,VALID,359,VALID,0,
2011-06-30, 03:17:04,VALID,1003.21,VALID,0,INVALID,163.853,VALID,0,VALID,22.964,VALID,358,VALID,0,
2011-06-30, 03:18:04,VALID,1003.21,VALID,0,INVALID,163.83,VALID,0,VALID,22.9445,VALID,357,VALID,0,
2011-06-30, 03:19:04,VALID,1003.2,VALID,0,INVALID,163.861,VALID,0,VALID,22.8844,VALID,357,VALID,0,
2011-06-30, 03:20:04,VALID,1003.21,VALID,0,INVALID,163.845,VALID,0,VALID,22.8667,VALID,357,VALID,0,
2011-06-30, 03:21:04,VALID,1003.22,VALID,0,INVALID,163.861,VALID,0,VALID,22.826,VALID,357,VALID,0,
2011-06-30, 03:22:04,VALID,1003.21,VALID,0,INVALID,163.838,VALID,0,VALID,22.8472,VALID,357,VALID,0,
2011-06-30, 03:23:04,VALID,1003.2,VALID,0,INVALID,163.823,VALID,0,VALID,22.826,VALID,357,VALID,0,
2011-06-30, 03:24:04,VALID,1003.22,VALID,0,INVALID,163.838,VALID,0,VALID,22.8455,VALID,357,VALID,0,
2011-06-30, 03:25:04,VALID,1003.23,VALID,0,INVALID,163.838,VALID,0,VALID,22.8455,VALID,357,VALID,0,
2011-06-30, 03:26:04,VALID,1003.2,VALID,0,INVALID,163.823,VALID,0,VALID,22.8667,VALID,357,VALID,0,
2011-06-30, 03:27:04,VALID,1003.17,VALID,0,INVALID,163.845,VALID,0,VALID,22.9251,VALID,357,VALID,0,
2011-06-30, 03:28:04,VALID,1003.18,VALID,0,INVALID,163.83,VALID,0,VALID,22.9428,VALID,357,VALID,0,
2011-06-30, 03:29:04,VALID,1003.16,VALID,0,INVALID,163.861,VALID,0,VALID,22.9834,VALID,357,VALID,0,
2011-06-30, 03:30:04,VALID,1003.17,VALID,0,INVALID,163.823,VALID,0,VALID,22.9428,VALID,357,VALID,0,
2011-06-30, 03:31:04,VALID,1003.16,VALID,0,INVALID,163.83,VALID,0,VALID,22.9622,VALID,357,VALID,0,
2011-06-30, 03:32:04,VALID,1003.16,VALID,0,INVALID,163.853,VALID,0,VALID,22.9834,VALID,357,VALID,0,
2011-06-30, 03:33:04,VALID,1003.18,VALID,0,INVALID,163.838,VALID,0,VALID,22.9622,VALID,357,VALID,0,
2011-06-30, 03:34:04,VALID,1003.19,VALID,0,INVALID,163.83,VALID,0,VALID,23.0224,VALID,357,VALID,0,
2011-06-30, 03:35:04,VALID,1003.19,VALID,0,INVALID,163.823,VALID,0,VALID,23.0206,VALID,357,VALID,0,
2011-06-30, 03:36:04,VALID,1003.23,VALID,0,INVALID,163.815,VALID,0,VALID,23.0224,VALID,357,VALID,0,
2011-06-30, 03:37:04,VALID,1003.24,VALID,0,INVALID,163.815,VALID,0,VALID,23.0224,VALID,357,VALID,0,
2011-06-30, 03:38:04,VALID,1003.25,VALID,0,INVALID,163.83,VALID,0,VALID,23.0418,VALID,329,VALID,0,
2011-06-30, 03:39:04,VALID,1003.21,VALID,0,INVALID,163.83,VALID,0,VALID,23.0595,VALID,337,VALID,0,
2011-06-30, 03:40:04,VALID,1003.21,VALID,0,INVALID,163.83,VALID,0,VALID,23.1002,VALID,341,VALID,0,
2011-06-30, 03:41:04,VALID,1003.2,VALID,0,INVALID,163.823,VALID,0,VALID,23.079,VALID,341,VALID,0,
2011-06-30, 03:42:04,VALID,1003.18,VALID,0,INVALID,163.823,VALID,0,VALID,23.1179,VALID,341,VALID,0,
2011-06-30, 03:43:04,VALID,1003.17,VALID,0,INVALID,163.83,VALID,0,VALID,23.1586,VALID,341,VALID,0,
2011-06-30, 03:44:04,VALID,1003.16,VALID,0,INVALID,163.815,VALID,0,VALID,23.1586,VALID,341,VALID,0,
2011-06-30, 03:45:04,VALID,1003.16,VALID,0,INVALID,163.807,VALID,0,VALID,23.1975,VALID,350,VALID,0,
2011-06-30, 03:46:04,VALID,1003.16,VALID,0,INVALID,163.823,VALID,0,VALID,23.1975,VALID,350,VALID,0,
2011-06-30, 03:47:04,VALID,1003.15,VALID,0,INVALID,163.83,VALID,0,VALID,23.1763,VALID,350,VALID,0,
2011-06-30, 03:48:04,VALID,1003.16,VALID,0,INVALID,163.8,VALID,0,VALID,23.217,VALID,350,VALID,0,
2011-06-30, 03:49:04,VALID,1003.17,VALID,0,INVALID,163.8,VALID,0,VALID,23.2364,VALID,350,VALID,0,
2011-06-30, 03:50:04,VALID,1003.16,VALID,0,INVALID,163.807,VALID,0,VALID,23.2736,VALID,350,VALID,0,
2011-06-30, 03:51:04,VALID,1003.15,VALID,0,INVALID,163.8,VALID,0,VALID,23.2931,VALID,350,VALID,0,
2011-06-30, 03:52:04,VALID,1003.17,VALID,0,INVALID,163.8,VALID,0,VALID,23.332,VALID,350,VALID,0,
2011-06-30, 03:53:04,VALID,1003.13,VALID,0,INVALID,163.792,VALID,0,VALID,23.3921,VALID,349,VALID,0,
2011-06-30, 03:54:04,VALID,1003.16,VALID,0,INVALID,163.777,VALID,0,VALID,23.4487,VALID,341,VALID,0,
2011-06-30, 03:55:04,VALID,1003.19,VALID,0,INVALID,163.784,VALID,0,VALID,23.4487,VALID,341,VALID,0,
2011-06-30, 03:56:04,VALID,1003.19,VALID,0,INVALID,163.777,VALID,0,VALID,23.4894,VALID,341,VALID,0,